owner,sensor,date,latitude,longitude,vertical_datum,sea_water_temperature,qcFlag 
DISL,ioos:station:DISL:KATA:1,2012-08-01T00:00:00Z,30.2583,-88.2131,0.0,30.34,2 
DISL,ioos:station:DISL:KATA:1,2012-08-01T00:30:00Z,30.2583,-88.2131,0.0,30.31,2 
DISL,ioos:station:DISL:KATA:1,2012-08-01T01:00:00Z,30.2583,-88.2131,0.0,30.28,2 
DISL,ioos:station:DISL:KATA:1,2012-08-01T01:30:00Z,30.2583,-88.2131,0.0,30.26,2 
DISL,ioos:station:DISL:KATA:1,2012-08-01T02:00:00Z,30.2583,-88.2131,0.0,30.24,2 
DISL,ioos:station:DISL:KATA:1,2012-08-01T02:30:00Z,30.2583,-88.2131,0.0,30.21,2 
DISL,ioos:station:DISL:KATA:1,2012-08-01T03:00:00Z,30.2583,-88.2131,0.0,30.2,2 
DISL,ioos:station:DISL:KATA:1,2012-08-01T03:30:00Z,30.2583,-88.2131,0.0,30.18,2 
DISL,ioos:station:DISL:KATA:1,2012-08-01T04:00:00Z,30.2583,-88.2131,0.0,30.16,2 
DISL,ioos:station:DISL:KATA:1,2012-08-01T04:30:00Z,30.2583,-88.2131,0.0,30.14,2 
DISL,ioos:station:DISL:KATA:1,2012-08-01T05:00:00Z,30.2583,-88.2131,0.0,30.12,2 
DISL,ioos:station:DISL:KATA:1,2012-08-01T05:30:00Z,30.2583,-88.2131,0.0,30.11,2 
DISL,ioos:station:DISL:KATA:1,2012-08-01T06:00:00Z,30.2583,-88.2131,0.0,30.1,2 
DISL,ioos:station:DISL:KATA:1,2012-08-01T06:30:00Z,30.2583,-88.2131,0.0,30.07,2 
DISL,ioos:station:DISL:KATA:1,2012-08-01T07:00:00Z,30.2583,-88.2131,0.0,30.06,2 
DISL,ioos:station:DISL:KATA:1,2012-08-01T07:30:00Z,30.2583,-88.2131,0.0,30.04,2 
DISL,ioos:station:DISL:KATA:1,2012-08-01T08:00:00Z,30.2583,-88.2131,0.0,30.02,2 
DISL,ioos:station:DISL:KATA:1,2012-08-01T08:30:00Z,30.2583,-88.2131,0.0,29.99,2 
DISL,ioos:station:DISL:KATA:1,2012-08-01T09:00:00Z,30.2583,-88.2131,0.0,29.96,2 
DISL,ioos:station:DISL:KATA:1,2012-08-01T09:30:00Z,30.2583,-88.2131,0.0,29.96,2 
DISL,ioos:station:DISL:KATA:1,2012-08-01T10:00:00Z,30.2583,-88.2131,0.0,29.97,2 
DISL,ioos:station:DISL:KATA:1,2012-08-01T10:30:00Z,30.2583,-88.2131,0.0,29.95,2 
DISL,ioos:station:DISL:KATA:1,2012-08-01T11:00:00Z,30.2583,-88.2131,0.0,29.87,2 
DISL,ioos:station:DISL:KATA:1,2012-08-01T11:30:00Z,30.2583,-88.2131,0.0,29.81,2 
DISL,ioos:station:DISL:KATA:1,2012-08-01T12:00:00Z,30.2583,-88.2131,0.0,29.74,2 
DISL,ioos:station:DISL:KATA:1,2012-08-01T12:30:00Z,30.2583,-88.2131,0.0,29.62,2 
DISL,ioos:station:DISL:KATA:1,2012-08-01T13:00:00Z,30.2583,-88.2131,0.0,29.61,2 
DISL,ioos:station:DISL:KATA:1,2012-08-01T13:30:00Z,30.2583,-88.2131,0.0,29.61,2 
DISL,ioos:station:DISL:KATA:1,2012-08-01T14:00:00Z,30.2583,-88.2131,0.0,29.63,2 
DISL,ioos:station:DISL:KATA:1,2012-08-01T14:30:00Z,30.2583,-88.2131,0.0,29.65,2 
DISL,ioos:station:DISL:KATA:1,2012-08-01T15:00:00Z,30.2583,-88.2131,0.0,29.65,2 
DISL,ioos:station:DISL:KATA:1,2012-08-01T15:30:00Z,30.2583,-88.2131,0.0,29.65,2 
DISL,ioos:station:DISL:KATA:1,2012-08-01T16:00:00Z,30.2583,-88.2131,0.0,29.66,2 
DISL,ioos:station:DISL:KATA:1,2012-08-01T16:30:00Z,30.2583,-88.2131,0.0,29.86,2 
DISL,ioos:station:DISL:KATA:1,2012-08-01T17:00:00Z,30.2583,-88.2131,0.0,29.84,2 
DISL,ioos:station:DISL:KATA:1,2012-08-01T17:30:00Z,30.2583,-88.2131,0.0,29.9,2 
DISL,ioos:station:DISL:KATA:1,2012-08-01T18:00:00Z,30.2583,-88.2131,0.0,29.91,2 
DISL,ioos:station:DISL:KATA:1,2012-08-01T18:30:00Z,30.2583,-88.2131,0.0,29.94,2 
DISL,ioos:station:DISL:KATA:1,2012-08-01T19:00:00Z,30.2583,-88.2131,0.0,30.01,2 
DISL,ioos:station:DISL:KATA:1,2012-08-01T19:30:00Z,30.2583,-88.2131,0.0,30.02,2 
DISL,ioos:station:DISL:KATA:1,2012-08-01T20:00:00Z,30.2583,-88.2131,0.0,30.04,2 
DISL,ioos:station:DISL:KATA:1,2012-08-01T20:30:00Z,30.2583,-88.2131,0.0,30.12,2 
DISL,ioos:station:DISL:KATA:1,2012-08-01T21:00:00Z,30.2583,-88.2131,0.0,30.21,2 
DISL,ioos:station:DISL:KATA:1,2012-08-01T21:30:00Z,30.2583,-88.2131,0.0,30.25,2 
DISL,ioos:station:DISL:KATA:1,2012-08-01T22:00:00Z,30.2583,-88.2131,0.0,30.24,2 
DISL,ioos:station:DISL:KATA:1,2012-08-01T22:30:00Z,30.2583,-88.2131,0.0,30.33,2 
DISL,ioos:station:DISL:KATA:1,2012-08-01T23:00:00Z,30.2583,-88.2131,0.0,30.41,2 
DISL,ioos:station:DISL:KATA:1,2012-08-01T23:30:00Z,30.2583,-88.2131,0.0,30.38,2 
DISL,ioos:station:DISL:KATA:1,2012-08-02T00:00:00Z,30.2583,-88.2131,0.0,30.39,2 
DISL,ioos:station:DISL:KATA:1,2012-08-02T00:30:00Z,30.2583,-88.2131,0.0,30.42,2 
DISL,ioos:station:DISL:KATA:1,2012-08-02T01:00:00Z,30.2583,-88.2131,0.0,30.46,2 
DISL,ioos:station:DISL:KATA:1,2012-08-02T01:30:00Z,30.2583,-88.2131,0.0,30.46,2 
DISL,ioos:station:DISL:KATA:1,2012-08-02T02:00:00Z,30.2583,-88.2131,0.0,30.46,2 
DISL,ioos:station:DISL:KATA:1,2012-08-02T02:30:00Z,30.2583,-88.2131,0.0,30.47,2 
DISL,ioos:station:DISL:KATA:1,2012-08-02T03:00:00Z,30.2583,-88.2131,0.0,30.49,2 
DISL,ioos:station:DISL:KATA:1,2012-08-02T03:30:00Z,30.2583,-88.2131,0.0,30.53,2 
DISL,ioos:station:DISL:KATA:1,2012-08-02T04:00:00Z,30.2583,-88.2131,0.0,30.53,2 
DISL,ioos:station:DISL:KATA:1,2012-08-02T04:30:00Z,30.2583,-88.2131,0.0,30.55,2 
DISL,ioos:station:DISL:KATA:1,2012-08-02T05:00:00Z,30.2583,-88.2131,0.0,30.53,2 
DISL,ioos:station:DISL:KATA:1,2012-08-02T05:30:00Z,30.2583,-88.2131,0.0,30.52,2 
DISL,ioos:station:DISL:KATA:1,2012-08-02T06:00:00Z,30.2583,-88.2131,0.0,30.51,2 
DISL,ioos:station:DISL:KATA:1,2012-08-02T06:30:00Z,30.2583,-88.2131,0.0,30.52,2 
DISL,ioos:station:DISL:KATA:1,2012-08-02T07:00:00Z,30.2583,-88.2131,0.0,30.51,2 
DISL,ioos:station:DISL:KATA:1,2012-08-02T07:30:00Z,30.2583,-88.2131,0.0,30.49,2 
DISL,ioos:station:DISL:KATA:1,2012-08-02T08:00:00Z,30.2583,-88.2131,0.0,30.2,2 
DISL,ioos:station:DISL:KATA:1,2012-08-02T08:30:00Z,30.2583,-88.2131,0.0,30.18,2 
DISL,ioos:station:DISL:KATA:1,2012-08-02T09:00:00Z,30.2583,-88.2131,0.0,30.19,2 
DISL,ioos:station:DISL:KATA:1,2012-08-02T09:30:00Z,30.2583,-88.2131,0.0,30.2,2 
DISL,ioos:station:DISL:KATA:1,2012-08-02T10:00:00Z,30.2583,-88.2131,0.0,30.21,2 
DISL,ioos:station:DISL:KATA:1,2012-08-02T10:30:00Z,30.2583,-88.2131,0.0,30.21,2 
DISL,ioos:station:DISL:KATA:1,2012-08-02T11:00:00Z,30.2583,-88.2131,0.0,30.2,2 
DISL,ioos:station:DISL:KATA:1,2012-08-02T11:30:00Z,30.2583,-88.2131,0.0,30.17,2 
DISL,ioos:station:DISL:KATA:1,2012-08-02T12:00:00Z,30.2583,-88.2131,0.0,30.11,2 
DISL,ioos:station:DISL:KATA:1,2012-08-02T12:30:00Z,30.2583,-88.2131,0.0,30.02,2 
DISL,ioos:station:DISL:KATA:1,2012-08-02T13:00:00Z,30.2583,-88.2131,0.0,29.99,2 
DISL,ioos:station:DISL:KATA:1,2012-08-02T13:30:00Z,30.2583,-88.2131,0.0,29.97,2 
DISL,ioos:station:DISL:KATA:1,2012-08-02T14:00:00Z,30.2583,-88.2131,0.0,29.96,2 
DISL,ioos:station:DISL:KATA:1,2012-08-02T14:30:00Z,30.2583,-88.2131,0.0,29.99,2 
DISL,ioos:station:DISL:KATA:1,2012-08-02T15:00:00Z,30.2583,-88.2131,0.0,29.92,2 
DISL,ioos:station:DISL:KATA:1,2012-08-02T15:30:00Z,30.2583,-88.2131,0.0,29.99,2 
DISL,ioos:station:DISL:KATA:1,2012-08-02T16:00:00Z,30.2583,-88.2131,0.0,30.02,2 
DISL,ioos:station:DISL:KATA:1,2012-08-02T16:30:00Z,30.2583,-88.2131,0.0,29.97,2 
DISL,ioos:station:DISL:KATA:1,2012-08-02T17:00:00Z,30.2583,-88.2131,0.0,29.88,2 
DISL,ioos:station:DISL:KATA:1,2012-08-02T17:30:00Z,30.2583,-88.2131,0.0,29.88,2 
DISL,ioos:station:DISL:KATA:1,2012-08-02T18:00:00Z,30.2583,-88.2131,0.0,29.92,2 
DISL,ioos:station:DISL:KATA:1,2012-08-02T18:30:00Z,30.2583,-88.2131,0.0,29.97,2 
DISL,ioos:station:DISL:KATA:1,2012-08-02T19:00:00Z,30.2583,-88.2131,0.0,30.02,2 
DISL,ioos:station:DISL:KATA:1,2012-08-02T19:30:00Z,30.2583,-88.2131,0.0,30.11,2 
DISL,ioos:station:DISL:KATA:1,2012-08-02T20:00:00Z,30.2583,-88.2131,0.0,30.14,2 
DISL,ioos:station:DISL:KATA:1,2012-08-02T20:30:00Z,30.2583,-88.2131,0.0,30.22,2 
DISL,ioos:station:DISL:KATA:1,2012-08-02T21:00:00Z,30.2583,-88.2131,0.0,30.27,2 
DISL,ioos:station:DISL:KATA:1,2012-08-02T21:30:00Z,30.2583,-88.2131,0.0,30.23,2 
DISL,ioos:station:DISL:KATA:1,2012-08-02T22:00:00Z,30.2583,-88.2131,0.0,30.34,2 
DISL,ioos:station:DISL:KATA:1,2012-08-02T22:30:00Z,30.2583,-88.2131,0.0,30.34,2 
DISL,ioos:station:DISL:KATA:1,2012-08-02T23:00:00Z,30.2583,-88.2131,0.0,30.33,2 
DISL,ioos:station:DISL:KATA:1,2012-08-02T23:30:00Z,30.2583,-88.2131,0.0,30.36,2 
DISL,ioos:station:DISL:KATA:1,2012-08-03T00:00:00Z,30.2583,-88.2131,0.0,30.32,2 
DISL,ioos:station:DISL:KATA:1,2012-08-03T00:30:00Z,30.2583,-88.2131,0.0,30.38,2 
DISL,ioos:station:DISL:KATA:1,2012-08-03T01:00:00Z,30.2583,-88.2131,0.0,30.34,2 
DISL,ioos:station:DISL:KATA:1,2012-08-03T01:30:00Z,30.2583,-88.2131,0.0,30.3,2 
DISL,ioos:station:DISL:KATA:1,2012-08-03T02:00:00Z,30.2583,-88.2131,0.0,30.32,2 
DISL,ioos:station:DISL:KATA:1,2012-08-03T02:30:00Z,30.2583,-88.2131,0.0,30.34,2 
DISL,ioos:station:DISL:KATA:1,2012-08-03T03:00:00Z,30.2583,-88.2131,0.0,30.33,2 
DISL,ioos:station:DISL:KATA:1,2012-08-03T03:30:00Z,30.2583,-88.2131,0.0,30.33,2 
DISL,ioos:station:DISL:KATA:1,2012-08-03T04:00:00Z,30.2583,-88.2131,0.0,30.34,2 
DISL,ioos:station:DISL:KATA:1,2012-08-03T04:30:00Z,30.2583,-88.2131,0.0,30.31,2 
DISL,ioos:station:DISL:KATA:1,2012-08-03T05:00:00Z,30.2583,-88.2131,0.0,30.29,2 
DISL,ioos:station:DISL:KATA:1,2012-08-03T05:30:00Z,30.2583,-88.2131,0.0,30.3,2 
DISL,ioos:station:DISL:KATA:1,2012-08-03T06:00:00Z,30.2583,-88.2131,0.0,30.27,2 
DISL,ioos:station:DISL:KATA:1,2012-08-03T06:30:00Z,30.2583,-88.2131,0.0,30.22,2 
DISL,ioos:station:DISL:KATA:1,2012-08-03T07:00:00Z,30.2583,-88.2131,0.0,30.2,2 
DISL,ioos:station:DISL:KATA:1,2012-08-03T07:30:00Z,30.2583,-88.2131,0.0,30.09,2 
DISL,ioos:station:DISL:KATA:1,2012-08-03T08:00:00Z,30.2583,-88.2131,0.0,30.07,2 
DISL,ioos:station:DISL:KATA:1,2012-08-03T08:30:00Z,30.2583,-88.2131,0.0,30.05,2 
DISL,ioos:station:DISL:KATA:1,2012-08-03T09:00:00Z,30.2583,-88.2131,0.0,30.04,2 
DISL,ioos:station:DISL:KATA:1,2012-08-03T09:30:00Z,30.2583,-88.2131,0.0,30.02,2 
DISL,ioos:station:DISL:KATA:1,2012-08-03T10:00:00Z,30.2583,-88.2131,0.0,29.96,2 
DISL,ioos:station:DISL:KATA:1,2012-08-03T10:30:00Z,30.2583,-88.2131,0.0,29.98,2 
DISL,ioos:station:DISL:KATA:1,2012-08-03T11:00:00Z,30.2583,-88.2131,0.0,29.98,2 
DISL,ioos:station:DISL:KATA:1,2012-08-03T11:30:00Z,30.2583,-88.2131,0.0,29.96,2 
DISL,ioos:station:DISL:KATA:1,2012-08-03T12:00:00Z,30.2583,-88.2131,0.0,29.97,2 
DISL,ioos:station:DISL:KATA:1,2012-08-03T12:30:00Z,30.2583,-88.2131,0.0,29.96,2 
DISL,ioos:station:DISL:KATA:1,2012-08-03T13:00:00Z,30.2583,-88.2131,0.0,29.92,2 
DISL,ioos:station:DISL:KATA:1,2012-08-03T13:30:00Z,30.2583,-88.2131,0.0,29.88,2 
DISL,ioos:station:DISL:KATA:1,2012-08-03T14:00:00Z,30.2583,-88.2131,0.0,29.84,2 
DISL,ioos:station:DISL:KATA:1,2012-08-03T14:30:00Z,30.2583,-88.2131,0.0,29.75,2 
DISL,ioos:station:DISL:KATA:1,2012-08-03T15:00:00Z,30.2583,-88.2131,0.0,29.73,2 
DISL,ioos:station:DISL:KATA:1,2012-08-03T15:30:00Z,30.2583,-88.2131,0.0,29.71,2 
DISL,ioos:station:DISL:KATA:1,2012-08-03T16:00:00Z,30.2583,-88.2131,0.0,29.68,2 
DISL,ioos:station:DISL:KATA:1,2012-08-03T16:30:00Z,30.2583,-88.2131,0.0,29.74,2 
DISL,ioos:station:DISL:KATA:1,2012-08-03T17:00:00Z,30.2583,-88.2131,0.0,29.75,2 
DISL,ioos:station:DISL:KATA:1,2012-08-03T17:30:00Z,30.2583,-88.2131,0.0,29.75,2 
DISL,ioos:station:DISL:KATA:1,2012-08-03T18:00:00Z,30.2583,-88.2131,0.0,29.75,2 
DISL,ioos:station:DISL:KATA:1,2012-08-03T18:30:00Z,30.2583,-88.2131,0.0,29.74,2 
DISL,ioos:station:DISL:KATA:1,2012-08-03T19:00:00Z,30.2583,-88.2131,0.0,29.74,2 
DISL,ioos:station:DISL:KATA:1,2012-08-03T19:30:00Z,30.2583,-88.2131,0.0,29.74,2 
DISL,ioos:station:DISL:KATA:1,2012-08-03T20:00:00Z,30.2583,-88.2131,0.0,29.75,2 
DISL,ioos:station:DISL:KATA:1,2012-08-03T20:30:00Z,30.2583,-88.2131,0.0,29.76,2 
DISL,ioos:station:DISL:KATA:1,2012-08-03T21:00:00Z,30.2583,-88.2131,0.0,29.77,2 
DISL,ioos:station:DISL:KATA:1,2012-08-03T21:30:00Z,30.2583,-88.2131,0.0,29.75,2 
DISL,ioos:station:DISL:KATA:1,2012-08-03T22:00:00Z,30.2583,-88.2131,0.0,29.78,2 
DISL,ioos:station:DISL:KATA:1,2012-08-03T22:30:00Z,30.2583,-88.2131,0.0,29.84,2 
DISL,ioos:station:DISL:KATA:1,2012-08-03T23:00:00Z,30.2583,-88.2131,0.0,29.91,2 
DISL,ioos:station:DISL:KATA:1,2012-08-03T23:30:00Z,30.2583,-88.2131,0.0,29.98,2 
DISL,ioos:station:DISL:KATA:1,2012-08-04T00:00:00Z,30.2583,-88.2131,0.0,30.04,2 
DISL,ioos:station:DISL:KATA:1,2012-08-04T00:30:00Z,30.2583,-88.2131,0.0,30.09,2 
DISL,ioos:station:DISL:KATA:1,2012-08-04T01:00:00Z,30.2583,-88.2131,0.0,30.17,2 
DISL,ioos:station:DISL:KATA:1,2012-08-04T01:30:00Z,30.2583,-88.2131,0.0,30.41,2 
DISL,ioos:station:DISL:KATA:1,2012-08-04T02:00:00Z,30.2583,-88.2131,0.0,30.48,2 
DISL,ioos:station:DISL:KATA:1,2012-08-04T02:30:00Z,30.2583,-88.2131,0.0,30.49,2 
DISL,ioos:station:DISL:KATA:1,2012-08-04T03:00:00Z,30.2583,-88.2131,0.0,30.55,2 
DISL,ioos:station:DISL:KATA:1,2012-08-04T03:30:00Z,30.2583,-88.2131,0.0,30.55,2 
DISL,ioos:station:DISL:KATA:1,2012-08-04T04:00:00Z,30.2583,-88.2131,0.0,30.53,2 
DISL,ioos:station:DISL:KATA:1,2012-08-04T04:30:00Z,30.2583,-88.2131,0.0,30.39,2 
DISL,ioos:station:DISL:KATA:1,2012-08-04T05:00:00Z,30.2583,-88.2131,0.0,30.39,2 
DISL,ioos:station:DISL:KATA:1,2012-08-04T05:30:00Z,30.2583,-88.2131,0.0,30.37,2 
DISL,ioos:station:DISL:KATA:1,2012-08-04T06:00:00Z,30.2583,-88.2131,0.0,30.35,2 
DISL,ioos:station:DISL:KATA:1,2012-08-04T06:30:00Z,30.2583,-88.2131,0.0,30.34,2 
DISL,ioos:station:DISL:KATA:1,2012-08-04T07:00:00Z,30.2583,-88.2131,0.0,30.29,2 
DISL,ioos:station:DISL:KATA:1,2012-08-04T07:30:00Z,30.2583,-88.2131,0.0,30.26,2 
DISL,ioos:station:DISL:KATA:1,2012-08-04T08:00:00Z,30.2583,-88.2131,0.0,30.22,2 
DISL,ioos:station:DISL:KATA:1,2012-08-04T08:30:00Z,30.2583,-88.2131,0.0,30.14,2 
DISL,ioos:station:DISL:KATA:1,2012-08-04T09:00:00Z,30.2583,-88.2131,0.0,30.04,2 
DISL,ioos:station:DISL:KATA:1,2012-08-04T09:30:00Z,30.2583,-88.2131,0.0,30.06,2 
DISL,ioos:station:DISL:KATA:1,2012-08-04T10:00:00Z,30.2583,-88.2131,0.0,30.03,2 
DISL,ioos:station:DISL:KATA:1,2012-08-04T10:30:00Z,30.2583,-88.2131,0.0,30.01,2 
DISL,ioos:station:DISL:KATA:1,2012-08-04T11:00:00Z,30.2583,-88.2131,0.0,29.96,2 
DISL,ioos:station:DISL:KATA:1,2012-08-04T11:30:00Z,30.2583,-88.2131,0.0,29.91,2 
DISL,ioos:station:DISL:KATA:1,2012-08-04T12:00:00Z,30.2583,-88.2131,0.0,29.87,2 
DISL,ioos:station:DISL:KATA:1,2012-08-04T12:30:00Z,30.2583,-88.2131,0.0,29.85,2 
DISL,ioos:station:DISL:KATA:1,2012-08-06T16:30:00Z,30.2583,-88.2131,0.0,29.39,2 
DISL,ioos:station:DISL:KATA:1,2012-08-06T17:00:00Z,30.2583,-88.2131,0.0,29.47,2 
DISL,ioos:station:DISL:KATA:1,2012-08-06T17:30:00Z,30.2583,-88.2131,0.0,29.38,2 
DISL,ioos:station:DISL:KATA:1,2012-08-06T18:00:00Z,30.2583,-88.2131,0.0,29.37,2 
DISL,ioos:station:DISL:KATA:1,2012-08-06T18:30:00Z,30.2583,-88.2131,0.0,29.36,2 
DISL,ioos:station:DISL:KATA:1,2012-08-06T19:00:00Z,30.2583,-88.2131,0.0,29.33,2 
DISL,ioos:station:DISL:KATA:1,2012-08-06T19:30:00Z,30.2583,-88.2131,0.0,29.37,2 
DISL,ioos:station:DISL:KATA:1,2012-08-06T20:00:00Z,30.2583,-88.2131,0.0,29.3,2 
DISL,ioos:station:DISL:KATA:1,2012-08-06T20:30:00Z,30.2583,-88.2131,0.0,29.31,2 
DISL,ioos:station:DISL:KATA:1,2012-08-06T21:00:00Z,30.2583,-88.2131,0.0,29.33,2 
DISL,ioos:station:DISL:KATA:1,2012-08-06T21:30:00Z,30.2583,-88.2131,0.0,29.31,2 
DISL,ioos:station:DISL:KATA:1,2012-08-06T22:00:00Z,30.2583,-88.2131,0.0,29.31,2 
DISL,ioos:station:DISL:KATA:1,2012-08-06T22:30:00Z,30.2583,-88.2131,0.0,29.29,2 
DISL,ioos:station:DISL:KATA:1,2012-08-06T23:00:00Z,30.2583,-88.2131,0.0,29.28,2 
DISL,ioos:station:DISL:KATA:1,2012-08-06T23:30:00Z,30.2583,-88.2131,0.0,29.27,2 
DISL,ioos:station:DISL:KATA:1,2012-08-07T00:00:00Z,30.2583,-88.2131,0.0,29.27,2 
DISL,ioos:station:DISL:KATA:1,2012-08-07T00:30:00Z,30.2583,-88.2131,0.0,29.27,2 
DISL,ioos:station:DISL:KATA:1,2012-08-07T01:00:00Z,30.2583,-88.2131,0.0,29.26,2 
DISL,ioos:station:DISL:KATA:1,2012-08-07T01:30:00Z,30.2583,-88.2131,0.0,29.25,2 
DISL,ioos:station:DISL:KATA:1,2012-08-07T02:00:00Z,30.2583,-88.2131,0.0,29.26,2 
DISL,ioos:station:DISL:KATA:1,2012-08-07T02:30:00Z,30.2583,-88.2131,0.0,29.26,2 
DISL,ioos:station:DISL:KATA:1,2012-08-07T03:00:00Z,30.2583,-88.2131,0.0,29.27,2 
DISL,ioos:station:DISL:KATA:1,2012-08-07T03:30:00Z,30.2583,-88.2131,0.0,29.27,2 
DISL,ioos:station:DISL:KATA:1,2012-08-07T04:00:00Z,30.2583,-88.2131,0.0,29.27,2 
DISL,ioos:station:DISL:KATA:1,2012-08-07T04:30:00Z,30.2583,-88.2131,0.0,29.29,2 
DISL,ioos:station:DISL:KATA:1,2012-08-07T05:00:00Z,30.2583,-88.2131,0.0,29.3,2 
DISL,ioos:station:DISL:KATA:1,2012-08-07T05:30:00Z,30.2583,-88.2131,0.0,29.28,2 
DISL,ioos:station:DISL:KATA:1,2012-08-07T06:00:00Z,30.2583,-88.2131,0.0,29.28,2 
DISL,ioos:station:DISL:KATA:1,2012-08-07T06:30:00Z,30.2583,-88.2131,0.0,29.3,2 
DISL,ioos:station:DISL:KATA:1,2012-08-07T07:30:00Z,30.2583,-88.2131,0.0,29.34,2 
DISL,ioos:station:DISL:KATA:1,2012-08-07T08:00:00Z,30.2583,-88.2131,0.0,29.31,2 
DISL,ioos:station:DISL:KATA:1,2012-08-07T08:30:00Z,30.2583,-88.2131,0.0,29.31,2 
DISL,ioos:station:DISL:KATA:1,2012-08-07T09:00:00Z,30.2583,-88.2131,0.0,29.28,2 
DISL,ioos:station:DISL:KATA:1,2012-08-07T09:30:00Z,30.2583,-88.2131,0.0,29.28,2 
DISL,ioos:station:DISL:KATA:1,2012-08-07T10:00:00Z,30.2583,-88.2131,0.0,29.29,2 
DISL,ioos:station:DISL:KATA:1,2012-08-07T11:00:00Z,30.2583,-88.2131,0.0,29.31,2 
DISL,ioos:station:DISL:KATA:1,2012-08-07T11:30:00Z,30.2583,-88.2131,0.0,29.31,2 
DISL,ioos:station:DISL:KATA:1,2012-08-07T12:00:00Z,30.2583,-88.2131,0.0,29.4,2 
DISL,ioos:station:DISL:KATA:1,2012-08-07T12:30:00Z,30.2583,-88.2131,0.0,29.36,2 
DISL,ioos:station:DISL:KATA:1,2012-08-07T13:00:00Z,30.2583,-88.2131,0.0,29.35,2 
DISL,ioos:station:DISL:KATA:1,2012-08-07T13:30:00Z,30.2583,-88.2131,0.0,29.37,2 
DISL,ioos:station:DISL:KATA:1,2012-08-07T14:00:00Z,30.2583,-88.2131,0.0,29.38,2 
DISL,ioos:station:DISL:KATA:1,2012-08-07T14:30:00Z,30.2583,-88.2131,0.0,29.39,2 
DISL,ioos:station:DISL:KATA:1,2012-08-07T15:00:00Z,30.2583,-88.2131,0.0,29.4,2 
DISL,ioos:station:DISL:KATA:1,2012-08-07T15:30:00Z,30.2583,-88.2131,0.0,29.41,2 
DISL,ioos:station:DISL:KATA:1,2012-08-07T16:00:00Z,30.2583,-88.2131,0.0,29.41,2 
DISL,ioos:station:DISL:KATA:1,2012-08-07T16:30:00Z,30.2583,-88.2131,0.0,29.41,2 
DISL,ioos:station:DISL:KATA:1,2012-08-07T17:00:00Z,30.2583,-88.2131,0.0,29.4,2 
DISL,ioos:station:DISL:KATA:1,2012-08-07T17:30:00Z,30.2583,-88.2131,0.0,29.4,2 
DISL,ioos:station:DISL:KATA:1,2012-08-07T18:00:00Z,30.2583,-88.2131,0.0,29.39,2 
DISL,ioos:station:DISL:KATA:1,2012-08-07T18:30:00Z,30.2583,-88.2131,0.0,29.38,2 
DISL,ioos:station:DISL:KATA:1,2012-08-07T19:00:00Z,30.2583,-88.2131,0.0,29.4,2 
DISL,ioos:station:DISL:KATA:1,2012-08-07T20:00:00Z,30.2583,-88.2131,0.0,29.36,2 
DISL,ioos:station:DISL:KATA:1,2012-08-07T20:30:00Z,30.2583,-88.2131,0.0,29.35,2 
DISL,ioos:station:DISL:KATA:1,2012-08-07T21:00:00Z,30.2583,-88.2131,0.0,29.35,2 
DISL,ioos:station:DISL:KATA:1,2012-08-07T21:30:00Z,30.2583,-88.2131,0.0,29.34,2 
DISL,ioos:station:DISL:KATA:1,2012-08-07T22:00:00Z,30.2583,-88.2131,0.0,29.35,2 
DISL,ioos:station:DISL:KATA:1,2012-08-07T22:30:00Z,30.2583,-88.2131,0.0,29.34,2 
DISL,ioos:station:DISL:KATA:1,2012-08-07T23:00:00Z,30.2583,-88.2131,0.0,29.34,2 
DISL,ioos:station:DISL:KATA:1,2012-08-07T23:30:00Z,30.2583,-88.2131,0.0,29.34,2 
DISL,ioos:station:DISL:KATA:1,2012-08-08T00:00:00Z,30.2583,-88.2131,0.0,29.34,2 
DISL,ioos:station:DISL:KATA:1,2012-08-08T00:30:00Z,30.2583,-88.2131,0.0,29.34,2 
DISL,ioos:station:DISL:KATA:1,2012-08-08T01:00:00Z,30.2583,-88.2131,0.0,29.36,2 
DISL,ioos:station:DISL:KATA:1,2012-08-08T01:30:00Z,30.2583,-88.2131,0.0,29.36,2 
DISL,ioos:station:DISL:KATA:1,2012-08-08T02:00:00Z,30.2583,-88.2131,0.0,29.37,2 
DISL,ioos:station:DISL:KATA:1,2012-08-08T02:30:00Z,30.2583,-88.2131,0.0,29.37,2 
DISL,ioos:station:DISL:KATA:1,2012-08-08T03:00:00Z,30.2583,-88.2131,0.0,29.39,2 
DISL,ioos:station:DISL:KATA:1,2012-08-08T03:30:00Z,30.2583,-88.2131,0.0,29.4,2 
DISL,ioos:station:DISL:KATA:1,2012-08-08T04:00:00Z,30.2583,-88.2131,0.0,29.41,2 
DISL,ioos:station:DISL:KATA:1,2012-08-08T04:30:00Z,30.2583,-88.2131,0.0,29.41,2 
DISL,ioos:station:DISL:KATA:1,2012-08-08T05:00:00Z,30.2583,-88.2131,0.0,29.41,2 
DISL,ioos:station:DISL:KATA:1,2012-08-08T05:30:00Z,30.2583,-88.2131,0.0,29.42,2 
DISL,ioos:station:DISL:KATA:1,2012-08-08T06:00:00Z,30.2583,-88.2131,0.0,29.39,2 
DISL,ioos:station:DISL:KATA:1,2012-08-08T06:30:00Z,30.2583,-88.2131,0.0,29.38,2 
DISL,ioos:station:DISL:KATA:1,2012-08-08T07:00:00Z,30.2583,-88.2131,0.0,29.37,2 
DISL,ioos:station:DISL:KATA:1,2012-08-08T07:30:00Z,30.2583,-88.2131,0.0,29.38,2 
DISL,ioos:station:DISL:KATA:1,2012-08-08T08:00:00Z,30.2583,-88.2131,0.0,29.37,2 
DISL,ioos:station:DISL:KATA:1,2012-08-08T08:30:00Z,30.2583,-88.2131,0.0,29.37,2 
DISL,ioos:station:DISL:KATA:1,2012-08-08T09:00:00Z,30.2583,-88.2131,0.0,29.41,2 
DISL,ioos:station:DISL:KATA:1,2012-08-08T09:30:00Z,30.2583,-88.2131,0.0,29.43,2 
DISL,ioos:station:DISL:KATA:1,2012-08-08T10:00:00Z,30.2583,-88.2131,0.0,29.47,2 
DISL,ioos:station:DISL:KATA:1,2012-08-08T10:30:00Z,30.2583,-88.2131,0.0,29.52,2 
DISL,ioos:station:DISL:KATA:1,2012-08-08T11:00:00Z,30.2583,-88.2131,0.0,29.53,2 
DISL,ioos:station:DISL:KATA:1,2012-08-08T11:30:00Z,30.2583,-88.2131,0.0,29.54,2 
DISL,ioos:station:DISL:KATA:1,2012-08-08T12:00:00Z,30.2583,-88.2131,0.0,29.66,2 
DISL,ioos:station:DISL:KATA:1,2012-08-08T12:30:00Z,30.2583,-88.2131,0.0,29.58,2 
DISL,ioos:station:DISL:KATA:1,2012-08-08T13:00:00Z,30.2583,-88.2131,0.0,29.62,2 
DISL,ioos:station:DISL:KATA:1,2012-08-08T13:30:00Z,30.2583,-88.2131,0.0,29.57,2 
DISL,ioos:station:DISL:KATA:1,2012-08-08T14:00:00Z,30.2583,-88.2131,0.0,29.59,2 
DISL,ioos:station:DISL:KATA:1,2012-08-08T14:30:00Z,30.2583,-88.2131,0.0,29.6,2 
DISL,ioos:station:DISL:KATA:1,2012-08-08T15:00:00Z,30.2583,-88.2131,0.0,29.62,2 
DISL,ioos:station:DISL:KATA:1,2012-08-08T15:30:00Z,30.2583,-88.2131,0.0,29.64,2 
DISL,ioos:station:DISL:KATA:1,2012-08-08T16:00:00Z,30.2583,-88.2131,0.0,29.67,2 
DISL,ioos:station:DISL:KATA:1,2012-08-08T16:30:00Z,30.2583,-88.2131,0.0,29.72,2 
DISL,ioos:station:DISL:KATA:1,2012-08-08T17:00:00Z,30.2583,-88.2131,0.0,29.71,2 
DISL,ioos:station:DISL:KATA:1,2012-08-08T18:00:00Z,30.2583,-88.2131,0.0,29.83,2 
DISL,ioos:station:DISL:KATA:1,2012-08-08T18:30:00Z,30.2583,-88.2131,0.0,29.73,2 
DISL,ioos:station:DISL:KATA:1,2012-08-08T19:00:00Z,30.2583,-88.2131,0.0,29.7,2 
DISL,ioos:station:DISL:KATA:1,2012-08-08T19:30:00Z,30.2583,-88.2131,0.0,29.65,2 
DISL,ioos:station:DISL:KATA:1,2012-08-08T20:00:00Z,30.2583,-88.2131,0.0,29.64,2 
DISL,ioos:station:DISL:KATA:1,2012-08-08T20:30:00Z,30.2583,-88.2131,0.0,29.61,2 
DISL,ioos:station:DISL:KATA:1,2012-08-08T21:00:00Z,30.2583,-88.2131,0.0,29.6,2 
DISL,ioos:station:DISL:KATA:1,2012-08-08T21:30:00Z,30.2583,-88.2131,0.0,29.58,2 
DISL,ioos:station:DISL:KATA:1,2012-08-08T22:00:00Z,30.2583,-88.2131,0.0,29.57,2 
DISL,ioos:station:DISL:KATA:1,2012-08-08T22:30:00Z,30.2583,-88.2131,0.0,29.56,2 
DISL,ioos:station:DISL:KATA:1,2012-08-08T23:00:00Z,30.2583,-88.2131,0.0,29.56,2 
DISL,ioos:station:DISL:KATA:1,2012-08-08T23:30:00Z,30.2583,-88.2131,0.0,29.55,2 
DISL,ioos:station:DISL:KATA:1,2012-08-09T00:00:00Z,30.2583,-88.2131,0.0,29.53,2 
DISL,ioos:station:DISL:KATA:1,2012-08-09T00:30:00Z,30.2583,-88.2131,0.0,29.53,2 
DISL,ioos:station:DISL:KATA:1,2012-08-09T01:00:00Z,30.2583,-88.2131,0.0,29.52,2 
DISL,ioos:station:DISL:KATA:1,2012-08-09T01:30:00Z,30.2583,-88.2131,0.0,29.53,2 
DISL,ioos:station:DISL:KATA:1,2012-08-09T02:00:00Z,30.2583,-88.2131,0.0,29.52,2 
DISL,ioos:station:DISL:KATA:1,2012-08-09T02:30:00Z,30.2583,-88.2131,0.0,29.51,2 
DISL,ioos:station:DISL:KATA:1,2012-08-09T03:00:00Z,30.2583,-88.2131,0.0,29.51,2 
DISL,ioos:station:DISL:KATA:1,2012-08-09T03:30:00Z,30.2583,-88.2131,0.0,29.52,2 
DISL,ioos:station:DISL:KATA:1,2012-08-09T04:00:00Z,30.2583,-88.2131,0.0,29.53,2 
DISL,ioos:station:DISL:KATA:1,2012-08-09T04:30:00Z,30.2583,-88.2131,0.0,29.54,2 
DISL,ioos:station:DISL:KATA:1,2012-08-09T05:00:00Z,30.2583,-88.2131,0.0,29.54,2 
DISL,ioos:station:DISL:KATA:1,2012-08-09T05:30:00Z,30.2583,-88.2131,0.0,29.54,2 
DISL,ioos:station:DISL:KATA:1,2012-08-09T06:00:00Z,30.2583,-88.2131,0.0,29.54,2 
DISL,ioos:station:DISL:KATA:1,2012-08-09T06:30:00Z,30.2583,-88.2131,0.0,29.55,2 
DISL,ioos:station:DISL:KATA:1,2012-08-09T07:00:00Z,30.2583,-88.2131,0.0,29.56,2 
DISL,ioos:station:DISL:KATA:1,2012-08-09T07:30:00Z,30.2583,-88.2131,0.0,29.57,2 
DISL,ioos:station:DISL:KATA:1,2012-08-09T08:00:00Z,30.2583,-88.2131,0.0,29.57,2 
DISL,ioos:station:DISL:KATA:1,2012-08-09T08:30:00Z,30.2583,-88.2131,0.0,29.59,2 